Overview Statistics Trail Chart Weather Telemetry Raw packets
 

This is the latest recevied weather packets stored in our database for station/object WE1C. If no packets are shown the sender has not sent any weather packets the latest 10 day(s).

<< 7 8 9 10 11 12 13 >>
Time Temp. Humidity Pressure Rain* Wind** Luminosity Snow
1788559939 21.67° C 79% 1038 hPa 0 mm - 41 W/m² -
1788559639 21.67° C 79% 1037.9 hPa 0 mm - 46 W/m² -
1788559334 21.67° C 78% 1037.9 hPa 0 mm - 49 W/m² -
1788559034 21.67° C 79% 1038 hPa 0 mm - 58 W/m² -
1788558730 22.22° C 79% 1038 hPa 0 mm - 59 W/m² -
1788558441 22.22° C 80% 1038.1 hPa 0 mm - 73 W/m² -
1788558120 22.78° C 76% 1038.1 hPa 0 mm - 78 W/m² -
1788557818 22.78° C 75% 1038 hPa 0 mm - 79 W/m² -
1788557515 22.78° C 75% 1038.1 hPa 0 mm - 99 W/m² -
1788557209 22.78° C 76% 1038.1 hPa 0 mm - 110 W/m² -
1788556904 22.78° C 76% 1038.4 hPa 0 mm - 115 W/m² -
1788556627 22.78° C 75% 1038.2 hPa 0 mm - 105 W/m² -
1788556300 22.78° C 75% 1038.4 hPa 0 mm - 104 W/m² -
1788555999 22.78° C 74% 1038.1 hPa 0 mm - 106 W/m² -
1788555695 22.78° C 75% 1038 hPa 0 mm - 96 W/m² -
1788555391 23.33° C 76% 1038 hPa 0 mm - 108 W/m² -
1788555087 23.33° C 72% 1038 hPa 0 mm - 124 W/m² -
1788554782 23.33° C 72% 1037.9 hPa 0 mm - 129 W/m² -
1788554478 23.89° C 71% 1037.9 hPa 0 mm - 132 W/m² -
1788554174 23.33° C 69% 1038 hPa 0 mm - 138 W/m² -
1788553871 23.33° C 73% 1037.9 hPa 0 mm - 131 W/m² -
1788553566 23.89° C 68% 1038 hPa 0 mm - 120 W/m² -
1788553263 23.89° C 72% 1038 hPa 0 mm - 94 W/m² -
1788552962 24.44° C 66% 1038.1 hPa 0 mm - 70 W/m² -
1788552657 24.44° C 67% 1038.1 hPa 0 mm - 80 W/m² -

* Rain latest hour (hover to see other rain measurements)
** Current wind speed in m/s (hover to see current wind gust speed)